Weather History for Poteau, OK

Change the Weather History Date:

Wednesday, August 7, 2013

  Actual Average (KFSM) Record (KFSM)
Temperature  
Mean Temperature 88 °F 83 °F  
Max Temperature 98 °F 94 °F 107 °F (1954)
Min Temperature 78 °F 72 °F 59 °F (1957)
Cooling Degree Days 23 18  
Month to date cooling degree days 126  
Year to date cooling degree days 1291  
Since 1 June cooling degree days 1047  
Growing Degree Days 38 (Base 50)    
Moisture  
Dew Point 77 °F    
Average Humidity 71    
Maximum Humidity 94    
Minimum Humidity 47    
Precipitation  
Precipitation 0.00 in 0.09 in 0.90 in (1921)
Month to date precipitation 0.63  
Year to date precipitation 27.40  
Sea Level Pressure  
Sea Level Pressure 29.86 in    
Wind  
Wind Speed 2 mph (South)    
Max Wind Speed 7 mph    
Max Gust Speed -    
Visibility 9 miles    
Events      
T = Trace of Precipitation, MM = Missing Value Source: NWS Daily Summary

Daily Weather History Graph

Daily Weather History Graph

Search for Another Location

Airport:

Trip Planner

Search our weather history database for the weather conditions in past years. The results will help you decide how hot, cold, wet, or windy it might be!

Date:

Astronomy

Aug. 07, 2013 Rise Set
Actual Time 6:32 AM CDT 8:15 PM CDT
Civil Twilight 6:05 AM CDT 8:42 PM CDT
Nautical Twilight 5:32 AM CDT 9:15 PM CDT
Astronomical Twilight 4:57 AM CDT 9:50 PM CDT
Moon 7:17 AM CDT (8/7) 8:28 PM CDT (8/7)
Length of Visible Light 14h 37m
Length of Day
13h 42m
New Moon, 1% of the Moon is Illuminated
Aug 7
New Moon
Aug 14
First Quarter
Aug 20
Full
Aug 28
Last Quarter
Sep 5
New

Hourly Weather History & Observations

Time (CDT) Temp. Heat Index Dew Point Humidity Pressure Visibility Wind Dir Wind Speed Gust Speed Precip Events Conditions
12:15 AM 82.4 °F 90.9 °F 77.0 °F 84% 29.86 in 10.0 mi Calm Calm - N/A   Clear
12:35 AM 82.4 °F 90.9 °F 77.0 °F 84% 29.86 in 10.0 mi West 3.5 mph - N/A   Clear
12:55 AM 82.4 °F 89.5 °F 75.2 °F 79% 29.86 in 10.0 mi Calm Calm - N/A   Clear
1:15 AM 82.4 °F 89.5 °F 75.2 °F 79% 29.87 in 10.0 mi Calm Calm - N/A   Clear
1:35 AM 82.4 °F 89.5 °F 75.2 °F 79% 29.87 in 10.0 mi Calm Calm - N/A   Clear
1:55 AM 82.4 °F 89.5 °F 75.2 °F 79% 29.85 in 10.0 mi South 3.5 mph - N/A   Clear
2:15 AM 82.4 °F 89.5 °F 75.2 °F 79% 29.85 in 10.0 mi Calm Calm - N/A   Clear
2:35 AM 80.6 °F 87.1 °F 77.0 °F 89% 29.85 in 10.0 mi SW 3.5 mph - N/A   Clear
2:55 AM 80.6 °F 85.4 °F 73.4 °F 79% 29.84 in 10.0 mi Calm Calm - N/A   Clear
3:15 AM 82.4 °F 88.2 °F 73.4 °F 74% 29.83 in 10.0 mi SW 3.5 mph - N/A   Clear
3:35 AM 82.4 °F 88.2 °F 73.4 °F 74% 29.83 in 10.0 mi WSW 4.6 mph - N/A   Clear
3:55 AM 80.6 °F 85.4 °F 73.4 °F 79% 29.83 in 10.0 mi WSW 4.6 mph - N/A   Clear
4:15 AM 80.6 °F 85.4 °F 73.4 °F 79% 29.83 in 10.0 mi SW 4.6 mph - N/A   Clear
4:35 AM 80.6 °F 85.4 °F 73.4 °F 79% 29.83 in 10.0 mi Calm Calm - N/A   Clear
4:55 AM 78.8 °F - 73.4 °F 83% 29.83 in 10.0 mi Calm Calm - N/A   Clear
5:15 AM 80.6 °F 85.4 °F 73.4 °F 79% 29.84 in 10.0 mi Calm Calm - N/A   Clear
5:35 AM 78.8 °F - 73.4 °F 83% 29.85 in 10.0 mi SSW 3.5 mph - N/A   Clear
5:55 AM 78.8 °F - 73.4 °F 83% 29.85 in 10.0 mi SW 3.5 mph - N/A   Clear
6:15 AM 78.8 °F - 73.4 °F 83% 29.85 in 10.0 mi SSW 4.6 mph - N/A   Clear
6:35 AM 78.8 °F - 73.4 °F 83% 29.85 in 10.0 mi SSW 5.8 mph - N/A   Clear
6:55 AM 78.8 °F - 73.4 °F 83% 29.86 in 10.0 mi Calm Calm - N/A   Clear
7:15 AM 78.8 °F - 73.4 °F 83% 29.87 in 10.0 mi Calm Calm - N/A   Clear
7:35 AM 80.6 °F 87.1 °F 77.0 °F 89% 29.88 in 10.0 mi Calm Calm - N/A   Clear
7:55 AM 80.6 °F 85.4 °F 73.4 °F 79% 29.89 in 10.0 mi Calm Calm - N/A   Clear
8:15 AM 82.4 °F 90.9 °F 77.0 °F 84% 29.90 in 10.0 mi Calm Calm - N/A   Clear
8:35 AM 86.0 °F 93.4 °F 73.4 °F 66% 29.91 in 10.0 mi Calm Calm - N/A   Mostly Cloudy
8:55 AM 86.0 °F 95.1 °F 75.2 °F 70% 29.91 in 7.0 mi Calm Calm - N/A   Scattered Clouds
9:15 AM 86.0 °F 93.4 °F 73.4 °F 66% 29.91 in 7.0 mi Calm Calm - N/A   Clear
9:35 AM 87.8 °F 97.6 °F 75.2 °F 66% 29.90 in 10.0 mi Calm Calm - N/A   Clear
9:55 AM 89.6 °F 102.2 °F 77.0 °F 66% 29.90 in 10.0 mi Calm Calm - N/A   Clear
10:15 AM 91.4 °F 107.2 °F 78.8 °F 66% 29.90 in 7.0 mi SSW 4.6 mph - N/A   Clear
10:35 AM 91.4 °F 107.2 °F 78.8 °F 66% 29.90 in 10.0 mi South 6.9 mph - N/A   Scattered Clouds
10:55 AM 91.4 °F 107.2 °F 78.8 °F 66% 29.90 in 10.0 mi South 6.9 mph - N/A   Clear
11:15 AM 91.4 °F 105.1 °F 77.0 °F 63% 29.90 in 7.0 mi South 5.8 mph - N/A   Clear
11:35 AM 91.4 °F 105.1 °F 77.0 °F 63% 29.90 in 7.0 mi Calm Calm - N/A   Clear
11:55 AM 93.2 °F 107.2 °F 77.0 °F 59% 29.90 in 7.0 mi Calm Calm - N/A   Clear
12:15 PM 95.0 °F 109.7 °F 77.0 °F 56% 29.89 in 10.0 mi Calm Calm - N/A   Clear
12:35 PM 95.0 °F 112.2 °F 78.8 °F 59% 29.89 in 10.0 mi Calm Calm - N/A   Clear
12:55 PM 96.8 °F 114.8 °F 78.8 °F 56% 29.89 in 7.0 mi East 3.5 mph - N/A   Clear
1:15 PM 96.8 °F 114.8 °F 78.8 °F 56% 29.88 in 10.0 mi ESE 3.5 mph - N/A   Clear
1:35 PM 96.8 °F 114.8 °F 78.8 °F 56% 29.87 in 7.0 mi East 4.6 mph - N/A   Clear
1:55 PM 96.8 °F 114.8 °F 78.8 °F 56% 29.86 in 10.0 mi Calm Calm - N/A   Clear
2:15 PM 96.8 °F 112.2 °F 77.0 °F 53% 29.86 in 10.0 mi SE 3.5 mph - N/A   Clear
2:35 PM 96.8 °F 112.2 °F 77.0 °F 53% 29.85 in 7.0 mi East 5.8 mph - N/A   Clear
2:55 PM 96.8 °F 114.8 °F 78.8 °F 56% 29.85 in 7.0 mi SE 4.6 mph - N/A   Clear
3:15 PM 98.6 °F 117.2 °F 78.8 °F 53% 29.85 in 7.0 mi East 4.6 mph - N/A   Clear
3:35 PM 98.6 °F 117.2 °F 78.8 °F 53% 29.84 in 7.0 mi SSE 4.6 mph - N/A   Clear
3:55 PM 98.6 °F 117.2 °F 78.8 °F 53% 29.84 in 7.0 mi SE 4.6 mph - N/A   Clear
4:15 PM 98.6 °F 114.4 °F 77.0 °F 50% 29.83 in 7.0 mi SE 4.6 mph - N/A   Clear
4:35 PM 98.6 °F 114.4 °F 77.0 °F 50% 29.83 in 7.0 mi South 4.6 mph - N/A   Clear
4:55 PM 98.6 °F 114.4 °F 77.0 °F 50% 29.83 in 10.0 mi SSE 6.9 mph - N/A   Clear
5:15 PM 98.6 °F 111.7 °F 75.2 °F 47% 29.83 in 7.0 mi South 4.6 mph - N/A   Clear
5:35 PM 96.8 °F 112.2 °F 77.0 °F 53% 29.83 in 7.0 mi South 6.9 mph - N/A   Clear
5:55 PM 96.8 °F 114.8 °F 78.8 °F 56% 29.82 in 7.0 mi SSE 3.5 mph - N/A   Clear
6:15 PM 96.8 °F 118.6 °F 80.6 °F 60% 29.82 in 10.0 mi Calm Calm - N/A   Clear
6:35 PM 96.8 °F 121.7 °F 82.4 °F 63% 29.82 in 7.0 mi Calm Calm - N/A   Mostly Cloudy
6:55 PM 95.0 °F 119.6 °F 82.4 °F 67% 29.82 in 7.0 mi Calm Calm - N/A   Scattered Clouds
7:15 PM 95.0 °F 119.6 °F 82.4 °F 67% 29.82 in 7.0 mi Calm Calm - N/A   Clear
7:35 PM 91.4 °F 111.0 °F 80.6 °F 71% 29.82 in 10.0 mi Calm Calm - N/A   Clear
7:55 PM 91.4 °F 111.0 °F 80.6 °F 71% 29.82 in 7.0 mi Calm Calm - N/A   Clear
8:15 PM 91.4 °F 114.3 °F 82.4 °F 75% 29.83 in 7.0 mi Calm Calm - N/A   Clear
8:35 PM 89.6 °F 108.2 °F 80.6 °F 75% 29.83 in 10.0 mi Calm Calm - N/A   Mostly Cloudy
8:55 PM 86.0 °F 101.9 °F 80.6 °F 84% 29.83 in 10.0 mi Calm Calm - N/A   Mostly Cloudy
9:15 PM 86.0 °F 99.3 °F 78.8 °F 79% 29.84 in 10.0 mi Calm Calm - N/A   Scattered Clouds
9:35 PM 86.0 °F 99.3 °F 78.8 °F 79% 29.85 in 10.0 mi Calm Calm - N/A   Clear
9:55 PM 84.2 °F 96.1 °F 78.8 °F 84% 29.85 in 10.0 mi Calm Calm - N/A   Clear
10:15 PM 82.4 °F 92.4 °F 78.8 °F 89% 29.85 in 10.0 mi Calm Calm - N/A   Scattered Clouds
10:35 PM 82.4 °F 92.4 °F 78.8 °F 89% 29.86 in 10.0 mi Calm Calm - N/A   Mostly Cloudy
10:55 PM 84.2 °F 96.1 °F 78.8 °F 84% 29.87 in 10.0 mi Calm Calm - N/A   Mostly Cloudy
11:15 PM 82.4 °F 92.4 °F 78.8 °F 89% 29.87 in 10.0 mi Calm Calm - N/A   Scattered Clouds
11:35 PM 82.4 °F 92.4 °F 78.8 °F 89% 29.86 in 10.0 mi Calm Calm - N/A   Scattered Clouds
11:55 PM 82.4 °F 94.0 °F 80.6 °F 94% 29.86 in 10.0 mi Calm Calm - N/A   Clear